Home   Weather   Rio de Janeiro   Past weeks

Flag for Brazil Past Weather in Rio de Janeiro, Rio de Janeiro, Brazil — Yesterday and Last 2 Weeks

Now
73 °F

Partly sunny.


Feels Like: 73 °F
Forecast: 73 / 80 °F
Wind: 2 mph from Northeast

Location: Rio De Janeiro Airport

Current Time: Dec 5, 2016 at 8:45:33 am

Latest Report: Dec 5, 2016 at 8:00 am


Visibility: 5 mi

Pressure: 29.71 "Hg

Humidity: 83%

Dew Point: 68 °F

Location of Rio de JaneiroLocation

Past Weather in Rio de Janeiro — Graph

°F

Rio de Janeiro Temperature Yesterday

Maximum temperature yesterday: 93 °F (at 2:00 pm)
Minimum temperature yesterday: 73 °F (at 8:00 pm)
Average temperature yesterday: 79 °F

High & Low Weather Summary for the Past Weeks

 TemperatureHumidityPressure
High93 °F (Dec 4, 2:00 pm)94% (Nov 26, 11:00 pm)30.15 "Hg (Nov 26, 11:00 pm)
Low66 °F (Nov 20, 7:00 am)49% (Dec 4, 2:00 pm)29.56 "Hg (Dec 4, 3:00 pm)
Average77 °F74%29.93 "Hg
* Reported Nov 20 7:00 am — Dec 5 7:00 am, Rio de Janeiro, Weather by CustomWeather, © 2016

Note: Actual official high and low records may vary slightly from our data, if they occured in-between our weather recording intervals... More about our weather records

Advertising

Rio de Janeiro Weather History for the Previous 24 Hours

Scroll right to see more
 ConditionsComfort  
Time TempWeatherWind HumidityBarometerVisibility
7:00 am
Mon, Dec 5
73 °FPartly sunny.2 mph78%29.71 "Hg5 mi
6:00 am73 °FPartly sunny.3 mph83%29.68 "Hg5 mi
5:00 am73 °FMostly cloudy.5 mph83%29.68 "HgN/A
4:00 am73 °FMostly cloudy.1 mph83%29.68 "Hg6 mi
3:00 am72 °FDrizzle. Overcast.2 mph88%29.68 "Hg4 mi
2:00 am73 °FMostly cloudy.7 mph89%29.68 "HgN/A
1:00 am73 °FPartly cloudy.7 mph89%29.71 "HgN/A
12:00 am73 °FPartly cloudy.3 mph89%29.71 "HgN/A
11:00 pm
Sun, Dec 4
73 °FPassing clouds.6 mph89%29.71 "HgN/A
10:00 pm75 °FPassing clouds.2 mph78%29.71 "HgN/A
9:00 pm73 °FMostly cloudy.3 mph83%29.68 "HgN/A
8:00 pm73 °FLight rain. Mostly cloudy.3 mph83%29.68 "Hg6 mi
7:00 pm75 °FMostly cloudy.10 mph74%29.65 "HgN/A
6:00 pm77 °FMostly cloudy.15 mph65%29.62 "HgN/A
5:00 pm79 °FPartly sunny.23 mph74%29.59 "HgN/A
4:00 pm81 °FPartly sunny.13 mph84%29.59 "Hg5 mi
3:00 pm88 °FPartly sunny.7 mph66%29.56 "HgN/A
2:00 pm93 °FScattered clouds.9 mph49%29.62 "HgN/A
1:00 pm91 °FBroken clouds.9 mph56%29.62 "HgN/A
12:00 pm84 °FBroken clouds.7 mph62%29.65 "HgN/A
11:00 am82 °FBroken clouds.9 mph70%29.65 "HgN/A
10:00 am79 °FPartly sunny.7 mph84%29.65 "HgN/A
9:00 am81 °FPartly sunny.2 mph74%29.65 "HgN/A
8:00 am77 °FPartly sunny.5 mph83%29.65 "HgN/A
Weather by CustomWeather, © 2016

See weather overviewHow to use our weather pages